Вернуться в каталог

FENGYUN 1C DEB

АктивенPO
NORAD 31987·DEBRIS·🇨🇳 China

Запущен May 10, 1999 с Taiyuan Satellite Launch Center

Loading…

Ближайшие Пролёты (ближайшие 24 часа)

TLE

СвежийSource: Space-Track

Эпоха: Sep 14, 2026, 05:44 UTC

1 31987U 99025CPQ 26257.23945215  .00002017  00000-0  56312-3 0  9996
2 31987  99.0579 254.1691 0051762  59.5993 313.8429 14.46667830  3455

Отслеживайте FENGYUN 1C DEB в реальном времени с AllMySat

Download on the App Store